Location: Catacaguana
(10.4120°N, 66.7591°W)
Time: 04:49:20
(UTC+00:00)

Meteor 2-20 Rocket - Pass Details

Date: 27 May 2022
Orbit: 940 x 960 km, 82.5° (Epoch: 26 June)

Event Time Altitude Azimuth Distance (km) Brightness Sun altitude
Exits shadow 08:37:59 25° 202° (SSW) 1,810 5.5 -20.1°
Maximum altitude 08:41:33 62° 274° (W) 1,070 4.4 -19.3°
Drops below altitude 10° 08:47:37 10° 354° (N) 2,684 7.1 -18.0°
Sets 08:50:10 0° 358° (N) 3,631 7.8 -17.4°
